Regional Weather Roundup
Issued by NWS

Home | Current Version | Previous Version | Graphics & Text | Print | Product List | Glossary On
Versions: 1 2 3 4 5 6 7 8 9 10 11 12 13 14 15 16 17 18 19 20 21 22 23 24 25 26 27 28 29 30 31 32 33 34 35 36 37 38 39 40 41 42 43 44 45 46 47 48 49 50
000
ASUS43 KDTX 260710
RWRMI
MICHIGAN HOURLY REGIONAL WEATHER ROUNDUP
NATIONAL WEATHER SERVICE DETROIT/PONTIAC MI
300 AM EDT THU MAY 26 2016

NOTE: "FAIR" INDICATES FEW OR NO CLOUDS BELOW 12,000 FEET WITH NO
SIGNIFICANT WEATHER AND/OR OBSTRUCTION TO VISIBILITY.

MIZ047>049-052>055-059>063-066>070-074>076-081>083-260800-
SOUTHEAST LOWER MICHIGAN

CITY           SKY/WX    TMP DP  RH WIND       PRES   REMARKS
ADRIAN         CLOUDY    70  61  73 SW7       30.00S
ALMA           RAIN      63  62  97 W10       29.97F
ANN ARBOR      MOCLDY    69  61  75 SW7       29.98S
BAD AXE        CLEAR     66  58  75 S6        29.95F
CARO           PTCLDY    68  60  75 SW6       29.95R
DETROIT CITY   PTCLDY    72  59  63 S7        29.97F
DETROIT        CLOUDY    70  61  73 S6        29.98F
FLINT          CLOUDY    74  59  59 W10       29.97R
GROSSE ILE     MOCLDY    66  63  88 S6        29.97F
HILLSDALE      CLOUDY    68  62  80 NW8       30.02R
HOWELL         CLOUDY    69  62  78 W7        30.00R

CITY           SKY/WX    TMP DP  RH WIND       PRES   REMARKS
JACKSON        CLOUDY    67  63  87 W9        30.01R
LAMBERTVILLE   MOCLDY    72  62  71 S7        30.00S
LANSING        LGT RAIN  66  62  87 W10       29.98F
LAPEER         FAIR      71  58  64 SW8       29.96F
MASON          CLOUDY    66  62  86 W3        30.00S
MONROE         MOCLDY    70  63  78 S7        29.98S
MT. CLEMENS    MOCLDY    71  61  72 S10       29.96F
PONTIAC        PTCLDY    71  60  68 S8        29.97S
PORT HOPE        N/A     60  55  83 SE5       29.94F
PORT HURON     CLOUDY    68  59  73 S3        29.98F
TRI CITIES     CLOUDY    65  58  78 W12       29.97R
MIDLAND        CLOUDY    61  55  82 W5        29.98R
TROY           CLOUDY    73  60  63 S8        29.99F
SAGINAW HB     CLOUDY    68  59  73 W15G21    29.96R
$$
MIZ043>046-050>051-056>058-064>065-071>073-077>080-260800-
SOUTHWEST LOWER MICHIGAN

CITY           SKY/WX    TMP DP  RH WIND       PRES   REMARKS
BATTLE CREEK   CLOUDY    63  61  93 SE5       29.99F
BENTON HARBOR  CLOUDY    65  62  90 SE6       29.95R
BIG RAPIDS     DRIZZLE   64  63  97 SE5       29.94F
COLDWATER      CLOUDY    66  62  85 N7        30.01S
FREMONT        CLOUDY    63  63 100 CALM      29.94R
HOLLAND        CLOUDY    65  63  93 S8        29.93F
GRAND RAPIDS   CLOUDY    66  63  90 S8        29.95F
IONIA          LGT RAIN  64  63  96 SE7       29.95F
KALAMAZOO      CLOUDY    65  61  87 CALM      29.97F
LUDINGTON      CLOUDY    63  61  94 SE6       29.91S
MARSHALL       RAIN      64  62  94 CALM      30.00F
MOUNT PLEASANT RAIN      62  61  96 SE5       29.98S
MUSKEGON       CLOUDY    66  61  84 S13       29.91F
SOUTH HAVEN    CLOUDY    64  64  99 CALM      29.95R
$$
MIZ016>042-260800-
NORTHERN LOWER MICHIGAN

CITY           SKY/WX    TMP DP  RH WIND       PRES   REMARKS
ALPENA         CLOUDY    58  52  80 E7        29.95F
BEAVER ISLAND  RAIN      58  57  94 SE6       29.93F
BELLAIRE       DRIZZLE   64  58  78 E5        29.94F
CADILLAC       LGT RAIN  63  61  94 S6        29.95F
CHARLEVOIX     LGT RAIN  64  60  88 CALM      29.96F
FRANKFORT      CLOUDY    65  64  96 CALM      29.90F
GAYLORD        CLOUDY    62  55  77 S5        29.96R
GRAYLING       CLOUDY    59  57  94 CALM      29.97S
HARBOR SPRINGS CLOUDY    62  55  78 CALM      29.95R
HOUGHTON LAKE  CLOUDY    62  56  80 SW8       29.98R
MANISTEE       CLOUDY    64  61  88 SE5       29.92S
OSCODA         PTCLDY    57  51  81 E3        29.94F
PELLSTON       LGT RAIN  62  56  80 VRB3      29.97R
ROGERS CITY    CLOUDY    61  53  73 SE8       29.96F
TRAVERSE CITY  LGT RAIN  66  64  93 SE3       29.92F
$$
MIZ007>008-015-260800-
EASTERN UPPER MICHIGAN

CITY           SKY/WX    TMP DP  RH WIND       PRES   REMARKS
KINROSS          N/A     57  55  94 SE8       29.95F
MACKINAC ISLAN CLOUDY    53  52  95 E12G21    29.94S
NEWBERRY       LGT RAIN  62  55  78 SE14      29.94R
S. S. MARIE    CLOUDY    59  53  80 SE6       29.97S
MUNISING         N/A     48  45  89 CALM      29.87F
$$
MIZ004>006-011>014-085-260800-
CENTRAL UPPER MICHIGAN

CITY           SKY/WX    TMP DP  RH WIND       PRES   REMARKS
MANISTIQUE     RAIN      56  56  97 E10       29.89F
ESCANABA       CLOUDY    55  52  88 SE6       29.85F
MENOMINEE      MOCLDY    61  60  97 S3        29.85F FOG
SAWYER-GWINN   LGT RAIN  51  49  94 E8        29.85F
$$
MIZ001>003-009>011-084-260800-
WESTERN UPPER MICHIGAN

CITY           SKY/WX    TMP DP  RH WIND       PRES   REMARKS
IRON MOUNTAIN  CLOUDY    60  58  92 S6        29.83F
HOUGHTON       LGT RAIN  54  52  93 E16G23    29.81F VSB 1/2
COPPER HARBOR    N/A     48  47  96 CALM      29.87F
IRONWOOD       CLOUDY    52  52 100 W5        29.81S
$$

ABBREVIATIONS USED IN REMARKS
   TC - TEMPERATURE IN CELSIUS
  WCI - WIND CHILL INDEX
   HX - HEAT INDEX
  VSB - VISIBILITY





USA.gov is the U.S. government's official web portal to all federal, state and local government web resources and services.